LBT619 DTMB-DAAG

Flight info

Callsign LBT619
Flight time 1h 14m
Altitude 36000
Route ABGOL1B ABGOL DCT PERAM UL874 DIMAO UW254 CSO DCT BJA DCT ZEM
Aircraft A320/M-SDE3FGHIRWY/LB1

Departure

Time 2026-05-04 09:04
Airport Monastir Habib Bourguiba International Airport (DTMB)

Arrival

Time 2026-05-04 10:19
Airport Houari Boumediene Airport (DAAG)
Time Latitude Longitude Altitude Speed Heading
2026-05-04 08:37 35.75981 10.75274 17 ft 0 kts 344°
2026-05-04 08:57 35.75903 10.75285 17 ft 2 kts 46°
2026-05-04 09:01 35.75899 10.75871 16 ft 22 kts 74°
2026-05-04 09:01 35.75944 10.76061 16 ft 25 kts 72°
2026-05-04 09:01 35.75993 10.76270 17 ft 26 kts 75°
2026-05-04 09:01 35.76046 10.76490 17 ft 26 kts 73°
2026-05-04 09:02 35.76084 10.76644 19 ft 18 kts 74°
2026-05-04 09:02 35.76119 10.76794 16 ft 15 kts 75°
2026-05-04 09:02 35.76141 10.76868 16 ft 7 kts 60°
2026-05-04 09:02 35.76170 10.76911 16 ft 5 kts 45°
2026-05-04 09:03 35.76173 10.76945 16 ft 3 kts 120°
2026-05-04 09:03 35.76157 10.76946 16 ft 2 kts 208°
2026-05-04 09:03 35.76120 10.76803 16 ft 50 kts 252°
2026-05-04 09:03 35.75950 10.76102 17 ft 118 kts 253°
2026-05-04 09:04 35.75666 10.74924 69 ft 164 kts 248°
2026-05-04 09:04 35.75335 10.73477 414 ft 190 kts 248°
2026-05-04 09:04 35.75367 10.71760 996 ft 200 kts 285°
2026-05-04 09:04 35.76099 10.70567 1585 ft 168 kts 319°
2026-05-04 09:05 35.77255 10.70247 1472 ft 176 kts 11°
2026-05-04 09:05 35.78272 10.70983 1422 ft 169 kts 59°
2026-05-04 09:05 35.78621 10.72320 1526 ft 165 kts 83°
2026-05-04 09:05 35.78927 10.73722 1572 ft 173 kts 77°
2026-05-04 09:06 35.79300 10.75114 1653 ft 174 kts 76°
2026-05-04 09:07 35.78782 10.83774 1256 ft 144 kts 197°
2026-05-04 09:08 35.77995 10.83035 1009 ft 144 kts 229°
2026-05-04 09:08 35.77519 10.81969 790 ft 141 kts 240°
2026-05-04 09:08 35.77168 10.80845 576 ft 140 kts 243°
2026-05-04 09:08 35.76846 10.79731 381 ft 135 kts 245°
2026-05-04 09:09 35.76566 10.78646 241 ft 131 kts 248°
2026-05-04 09:09 35.76305 10.77563 104 ft 133 kts 245°
2026-05-04 09:09 35.76128 10.76840 62 ft 133 kts 248°
2026-05-04 09:09 35.75874 10.75824 17 ft 111 kts 253°
2026-05-04 09:10 35.75673 10.74977 19 ft 113 kts 252°
2026-05-04 09:10 35.75373 10.73762 224 ft 169 kts 252°
2026-05-04 09:10 35.75527 10.72243 1058 ft 195 kts 291°
2026-05-04 09:10 35.76412 10.70898 1940 ft 208 kts 309°
2026-05-04 09:11 35.77394 10.69570 2918 ft 211 kts 304°
2026-05-04 09:11 35.78321 10.68142 3935 ft 216 kts 304°
2026-05-04 09:11 35.79273 10.66684 4977 ft 223 kts 306°
2026-05-04 09:11 35.80288 10.65148 5990 ft 239 kts 307°
2026-05-04 09:12 35.81382 10.63517 7074 ft 253 kts 309°
2026-05-04 09:12 35.82455 10.61739 8248 ft 263 kts 300°
2026-05-04 09:14 35.86677 10.48906 13957 ft 314 kts 291°
2026-05-04 09:14 35.87517 10.46335 14274 ft 331 kts 292°
2026-05-04 09:14 35.88412 10.43688 14889 ft 337 kts 293°
2026-05-04 09:14 35.89323 10.41014 15578 ft 340 kts 292°
2026-05-04 09:15 35.90241 10.38312 16293 ft 343 kts 292°
2026-05-04 09:15 35.91162 10.35588 17021 ft 345 kts 292°
2026-05-04 09:15 35.92086 10.32842 17753 ft 348 kts 292°
2026-05-04 09:15 35.93010 10.30077 18472 ft 350 kts 292°
2026-05-04 09:17 36.00578 10.07277 22126 ft 363 kts 291°
2026-05-04 09:18 36.01528 10.04390 22125 ft 363 kts 291°
2026-05-04 09:18 36.02481 10.01497 22121 ft 363 kts 291°
2026-05-04 09:18 36.03434 9.98610 22116 ft 363 kts 291°
2026-05-04 09:18 36.04388 9.95723 22120 ft 363 kts 291°
2026-05-04 09:19 36.05344 9.92835 22121 ft 363 kts 291°
2026-05-04 09:19 36.06298 9.89950 22123 ft 363 kts 291°
2026-05-04 09:19 36.07248 9.87058 22121 ft 363 kts 291°
2026-05-04 09:19 36.08196 9.84167 22119 ft 363 kts 291°
2026-05-04 09:20 36.09141 9.81275 22116 ft 363 kts 291°
2026-05-04 09:20 36.10087 9.78382 22116 ft 363 kts 291°
2026-05-04 09:20 36.11040 9.75472 22560 ft 366 kts 291°
2026-05-04 09:20 36.11998 9.72545 23162 ft 369 kts 291°
2026-05-04 09:21 36.12961 9.69592 23729 ft 371 kts 291°
2026-05-04 09:21 36.13931 9.66617 24215 ft 373 kts 291°
2026-05-04 09:21 36.14904 9.63636 24698 ft 375 kts 291°
2026-05-04 09:21 36.15888 9.60631 25155 ft 377 kts 291°
2026-05-04 09:22 36.16873 9.57615 25615 ft 379 kts 290°
2026-05-04 09:22 36.17859 9.54579 26072 ft 381 kts 290°
2026-05-04 09:22 36.18846 9.51527 26509 ft 383 kts 290°
2026-05-04 09:22 36.19841 9.48454 26965 ft 385 kts 290°
2026-05-04 09:23 36.20836 9.45365 27404 ft 387 kts 290°
2026-05-04 09:23 36.21840 9.42259 27830 ft 389 kts 290°
2026-05-04 09:23 36.22848 9.39139 28257 ft 392 kts 290°
2026-05-04 09:23 36.23864 9.36002 28669 ft 394 kts 290°
2026-05-04 09:25 36.28338 9.12653 31261 ft 405 kts 280°
2026-05-04 09:25 36.28897 9.09217 31579 ft 407 kts 280°
2026-05-04 09:26 36.29455 9.05778 31950 ft 407 kts 280°
2026-05-04 09:26 36.30012 9.02354 32414 ft 405 kts 280°
2026-05-04 09:26 36.30567 8.98944 32875 ft 403 kts 280°
2026-05-04 09:26 36.31120 8.95545 33324 ft 401 kts 280°
2026-05-04 09:27 36.31668 8.92167 33770 ft 399 kts 280°
2026-05-04 09:27 36.32211 8.88804 34185 ft 397 kts 280°
2026-05-04 09:27 36.32752 8.85446 34560 ft 396 kts 280°
2026-05-04 09:27 36.33290 8.82104 34941 ft 394 kts 280°
2026-05-04 09:28 36.33826 8.78777 35298 ft 393 kts 280°
2026-05-04 09:28 36.34360 8.75466 35646 ft 391 kts 280°
2026-05-04 09:28 36.34892 8.72164 35981 ft 390 kts 280°
2026-05-04 09:28 36.35421 8.68862 36084 ft 387 kts 280°
2026-05-04 09:29 36.36473 8.62230 36108 ft 399 kts 280°
2026-05-04 09:29 36.37553 8.55373 36107 ft 411 kts 280°
2026-05-04 09:30 36.38667 8.48335 36103 ft 418 kts 280°
2026-05-04 09:30 36.39782 8.41243 36103 ft 419 kts 280°
2026-05-04 09:31 36.40361 8.34089 36106 ft 418 kts 266°
2026-05-04 09:31 36.40670 8.26917 36109 ft 418 kts 277°
2026-05-04 09:32 36.41450 8.19758 36370 ft 419 kts 277°
2026-05-04 09:34 36.44154 7.94963 38092 ft 410 kts 277°
2026-05-04 09:34 36.44525 7.91499 38104 ft 410 kts 277°
2026-05-04 09:34 36.45277 7.84437 38093 ft 409 kts 276°
2026-05-04 09:35 36.46019 7.77430 38103 ft 409 kts 276°
2026-05-04 09:35 36.46756 7.70471 38094 ft 409 kts 276°
2026-05-04 09:37 36.49677 7.42434 38095 ft 409 kts 276°
2026-05-04 09:38 36.50397 7.35431 38097 ft 409 kts 276°
2026-05-04 09:38 36.51112 7.28413 38093 ft 409 kts 276°
2026-05-04 09:39 36.51823 7.21403 38095 ft 409 kts 276°
2026-05-04 09:39 36.52529 7.14394 38097 ft 408 kts 276°
2026-05-04 09:40 36.53234 7.07386 38101 ft 408 kts 276°
2026-05-04 09:40 36.53936 7.00385 38103 ft 408 kts 276°
2026-05-04 09:42 36.56667 6.72568 38119 ft 408 kts 276°
2026-05-04 09:43 36.57344 6.65519 38128 ft 408 kts 276°
2026-05-04 09:43 36.58014 6.58552 38126 ft 408 kts 275°
2026-05-04 09:44 36.58685 6.51542 38114 ft 408 kts 275°
2026-05-04 09:46 36.61328 6.23490 38093 ft 408 kts 275°
2026-05-04 09:46 36.61977 6.16470 38085 ft 409 kts 275°
2026-05-04 09:47 36.62621 6.09445 38078 ft 409 kts 275°
2026-05-04 09:49 36.65163 5.81324 38067 ft 410 kts 275°
2026-05-04 09:51 36.67324 5.56741 38076 ft 410 kts 274°
2026-05-04 09:51 36.67934 5.49674 38075 ft 410 kts 274°
2026-05-04 09:52 36.68542 5.42606 38072 ft 410 kts 274°
2026-05-04 09:52 36.69149 5.35551 37677 ft 408 kts 274°
2026-05-04 09:52 36.69447 5.32031 36813 ft 410 kts 274°
2026-05-04 09:53 36.69742 5.28491 36038 ft 410 kts 274°
2026-05-04 09:53 36.70037 5.24964 35418 ft 408 kts 274°
2026-05-04 09:53 36.70333 5.21463 34804 ft 405 kts 274°
2026-05-04 09:53 36.70628 5.17974 34159 ft 404 kts 274°
2026-05-04 09:54 36.70921 5.14496 33453 ft 403 kts 274°
2026-05-04 09:54 36.71115 5.12197 33008 ft 401 kts 274°
2026-05-04 09:54 36.71403 5.08748 32362 ft 399 kts 274°
2026-05-04 09:54 36.71669 5.05326 31733 ft 396 kts 273°
2026-05-04 09:55 36.71890 5.01914 31111 ft 394 kts 273°
2026-05-04 09:55 36.72081 4.98514 30502 ft 392 kts 272°
2026-05-04 09:55 36.72258 4.95136 29878 ft 390 kts 272°
2026-05-04 09:55 36.72433 4.91773 29183 ft 388 kts 272°
2026-05-04 09:56 36.72614 4.88422 28512 ft 386 kts 273°
2026-05-04 09:56 36.72802 4.85094 27855 ft 384 kts 272°
2026-05-04 09:56 36.72992 4.81778 27214 ft 383 kts 272°
2026-05-04 09:56 36.73180 4.78483 26583 ft 380 kts 272°
2026-05-04 09:57 36.73366 4.75229 26252 ft 371 kts 272°
2026-05-04 09:57 36.73546 4.72070 26004 ft 360 kts 272°
2026-05-04 09:57 36.73720 4.69006 25760 ft 350 kts 272°
2026-05-04 09:57 36.73890 4.66022 25518 ft 340 kts 272°
2026-05-04 09:58 36.74054 4.63109 25270 ft 334 kts 272°
2026-05-04 09:58 36.74213 4.60243 24845 ft 331 kts 272°
2026-05-04 09:58 36.74373 4.57384 24368 ft 330 kts 272°
2026-05-04 10:00 36.75452 4.37621 23422 ft 323 kts 272°
2026-05-04 10:00 36.75601 4.34835 22974 ft 321 kts 272°
2026-05-04 10:02 36.76594 4.15920 19858 ft 311 kts 272°
2026-05-04 10:04 36.77585 3.96539 16055 ft 324 kts 271°
2026-05-04 10:04 36.77728 3.93721 15438 ft 327 kts 271°
2026-05-04 10:04 36.77870 3.90874 14829 ft 330 kts 271°
2026-05-04 10:04 36.78011 3.88013 14236 ft 332 kts 270°
2026-05-04 10:05 36.78152 3.85134 13636 ft 333 kts 270°
2026-05-04 10:05 36.78295 3.82248 12983 ft 334 kts 270°
2026-05-04 10:05 36.78437 3.79355 12348 ft 334 kts 270°
2026-05-04 10:05 36.78576 3.76463 11726 ft 334 kts 270°
2026-05-04 10:06 36.78715 3.73575 11103 ft 334 kts 270°
2026-05-04 10:06 36.78855 3.70727 10508 ft 333 kts 270°
2026-05-04 10:06 36.78997 3.67815 9910 ft 332 kts 270°
2026-05-04 10:08 36.76095 3.52583 6247 ft 315 kts 227°
2026-05-04 10:08 36.74660 3.50531 5652 ft 313 kts 230°
2026-05-04 10:08 36.73277 3.48442 5065 ft 312 kts 231°
2026-05-04 10:08 36.71952 3.46308 4508 ft 311 kts 231°
2026-05-04 10:09 36.70633 3.44165 3963 ft 312 kts 231°
2026-05-04 10:09 36.69304 3.42011 3517 ft 316 kts 231°
2026-05-04 10:09 36.68111 3.39688 3066 ft 322 kts 242°
2026-05-04 10:09 36.67514 3.36979 2573 ft 329 kts 263°
2026-05-04 10:10 36.67720 3.34140 2040 ft 332 kts 282°
2026-05-04 10:10 36.68365 3.31385 1555 ft 328 kts 285°
2026-05-04 10:10 36.68867 3.28666 1134 ft 318 kts 277°
2026-05-04 10:10 36.68978 3.25972 704 ft 299 kts 270°
2026-05-04 10:11 36.68979 3.23551 381 ft 262 kts 274°
2026-05-04 10:11 36.69085 3.21471 193 ft 219 kts 277°
2026-05-04 10:11 36.69135 3.19741 195 ft 186 kts 274°
2026-05-04 10:11 36.69313 3.17995 627 ft 222 kts 294°
2026-05-04 10:12 36.70276 3.16441 1034 ft 235 kts 326°
2026-05-04 10:12 36.71823 3.15826 1349 ft 238 kts
2026-05-04 10:12 36.73385 3.16418 1670 ft 236 kts 36°
2026-05-04 10:12 36.74377 3.17933 1945 ft 223 kts 67°
2026-05-04 10:13 36.74680 3.19835 1870 ft 227 kts 94°
2026-05-04 10:13 36.74592 3.21815 1813 ft 229 kts 95°
2026-05-04 10:13 36.74519 3.23764 1741 ft 221 kts 94°
2026-05-04 10:13 36.74521 3.25662 1654 ft 218 kts 87°
2026-05-04 10:14 36.74628 3.27514 1634 ft 210 kts 88°
2026-05-04 10:14 36.74692 3.29289 1603 ft 200 kts 96°
2026-05-04 10:16 36.71672 3.26378 554 ft 135 kts 255°
2026-05-04 10:16 36.71303 3.25285 252 ft 139 kts 247°
2026-05-04 10:16 36.70773 3.24306 91 ft 126 kts 236°
2026-05-04 10:16 36.70346 3.23587 88 ft 79 kts 232°
2026-05-04 10:17 36.70086 3.23166 92 ft 55 kts 231°
2026-05-04 10:17 36.69868 3.22798 91 ft 51 kts 233°
2026-05-04 10:19 36.69381 3.21262 88 ft 24 kts 267°
2026-05-04 10:19 36.69383 3.21057 88 ft 23 kts 272°
2026-05-04 10:19 36.69383 3.20890 88 ft 12 kts 269°
2026-05-04 10:19 36.69434 3.20813 92 ft 12 kts 287°
2026-05-04 10:20 36.69438 3.20696 90 ft 14 kts 271°
2026-05-04 10:20 36.69441 3.20561 88 ft 17 kts 272°
2026-05-04 10:20 36.69445 3.20411 88 ft 9 kts 276°
2026-05-04 10:20 36.69478 3.20364 89 ft 8 kts 342°
2026-05-04 10:21 36.69545 3.20366 88 ft 11 kts
2026-05-04 10:21 36.69612 3.20366 88 ft 7 kts
2026-05-04 10:21 36.69638 3.20331 88 ft 4 kts 275°
2026-05-04 10:21 36.69639 3.20304 88 ft 3 kts 272°
2026-05-04 10:22 36.69641 3.20268 88 ft 0 kts 274°